Temp
38 32 28 32 33 34 32 30 29 33 40 36 34 36 42 41 40 41 42 41 43 43 45 47 47 46 48 54 57 61 60 60 58 55 53 52 53 53 52 51 51 52 51 51
33 29 37 38 37 34 32 30 29 34 37 35 36 35 38 41 39 40 40 40 41 42 44 45 46 45 45 47 51 57 58 57 58 56 54 54 52 52 52 52 51 50 50 49
31 35 40 38 35 33 33 31 30 32 34 33 32 30 33 38 40 41 41 42 42 41 41 42 43 44 44 43 44 50 56 56 56 53 52 50 50 50 48 48 47 48 49 48
32 38 37 34 33 35 30 35 34 33 29 21 31 16 28 33 34 36 37 37 39 40 42 42 42 42 42 43 45 46 53 55 54 53 50 49 48 48 49 48 46 46 47 47
32 33 34 33 35 38 33 36 34 33 27 23 24 18 24 32 29 31 33 36 37 38 40 40 40 42 42 43 43 45 48 54 53 53 51 49 49 48 48 47 46 44 45 46
33 37 36 36 38 38 38 34 31 28 25 6 23 23 24 27 30 30 32 33 35 37 37 39 41 42 41 42 42 43 44 49 52 52 51 49 47 44 45 45 44 43 43 43
31 32 34 38 34 34 34 27 6 6 4 8 25 22 22 28 32 32 30 31 32 33 35 36 37 37 38 39 39 42 41 42 46 50 51 50 49 45 45 45 45 42 42 41
19 19 32 35 34 31 30 26 11 1 5 13 26 18 25 32 33 34 33 32 33 33 34 34 35 36 36 37 38 39 39 40 41 42 45 49 49 47 46 46 46 46 45 44
17 23 33 34 35 35 28 22 30 9 6 10 20 24 30 31 30 31 30 30 30 32 33 33 34 34 35 36 36 36 37 38 39 39 41 43 47 47 47 46 45 46 46 43
24 17 30 33 34 33 31 33 19 13 2 7 13 19 22 25 26 28 27 27 29 31 32 33 33 33 33 34 35 36 37 36 38 39 39 40 41 44 46 45 43 43 42 43
27 23 24 29 27 25 24 20 21 23 18 6 3 16 28 30 28 27 28 29 28 30 31 32 32 33 32 32 33 33 35 35 36 37 38 37 39 40 41 42 42 42 41 42
28 24 14 22 27 29 28 26 24 11 12 15 13 19 30 29 28 29 29 31 30 31 31 31 32 32 31 31 31 31 33 33 35 36 36 36 37 38 38 39 40 40 39 40
26 13 1 12 22 26 23 26 24 19 16 12 8 17 29 29 27 30 28 30 30 30 31 31 32 32 31 31 30 30 31 32 34 34 34 35 35 34 34 35 35 37 36 35
30 14 7 8 15 17 18 23 23 12 3 5 12 11 23 26 25 27 30 33 30 30 30 31 31 32 31 32 30 30 30 30 31 33 34 33 33 33 33 34 33 34 34 34
20 5 8 11 17 17 18 18 19 12 7 7 16 14 21 17 19 24 28 30 29 30 30 29 29 30 30 29 29 27 27 28 30 30 32 32 33 33 33 32 30 31 34 34
18 6 13 2 18 18 15 19 18 19 17 14 17 15 27 30 31 28 24 23 25 21 23 25 26 27 29 29 29 24 22 26 29 26 27 31 32 33 31 32 30 27 29 30
10 6 -1 -5 15 11 3 14 17 17 14 13 10 19 26 21 24 23 25 24 19 20 20 21 22 24 27 26 28 23 24 22 21 20 24 26 30 31 32 34 32 27 28 30
9 9 8 -3 3 -7 17 19 21 19 21 20 18 21 25 19 25 26 21 20 21 20 20 21 21 21 23 25 24 18 16 16 20 18 17 18 25 29 31 33 33 32 28 31
19 16 10 2 -6 11 17 18 16 13 17 24 21 25 27 29 29 25 28 23 24 23 24 24 22 20 15 17 17 14 12 11 13 18 16 20 29 28 28 30 33 34 32 30
17 20 14 -4 -4 -9 17 20 25 23 11 26 26 26 26 28 15 22 28 17 22 20 20 19 20 10 8 19 14 16 17 13 15 18 19 20 28 27 25 27 31 34 34 34
8 11 8 6 1 4 20 25 25 5 12 26 27 27 27 24 26 28 25 19 17 18 19 13 9 16 19 15 14 16 16 17 21 21 20 19 21 25 26 26 30 33 33 33
3 -3 -1 -8 -7 0 22 20 13 21 27 27 27 27 26 29 31 29 28 24 23 22 18 16 16 18 20 14 19 20 22 23 19 21 23 21 21 24 25 26 28 33 32 31
3 9 4 5 6 20 20 18 21 17 23 26 26 28 29 28 28 29 28 28 29 28 27 22 22 24 23 20 23 25 26 21 19 19 19 19 21 23 25 25 28 31 32 31
11 8 11 10 17 20 24 25 24 25 23 27 27 27 26 25 28 29 29 30 28 29 27 26 22 23 24 24 25 26 24 21 16 16 18 20 20 22 24 26 30 32 32 31
16 13 9 15 22 24 25 24 22 23 24 23 22 20 21 21 23 24 24 27 28 28 27 21 23 24 24 24 22 20 20 16 15 15 18 19 20 20 22 26 30 32 33 34
19 19 15 13 24 22 23 21 20 19 19 19 17 14 18 18 18 17 16 19 19 18 18 19 19 19 21 18 18 14 13 13 11 15 17 17 18 19 21 23 27 36 35 35
MSLP
1019.56 1020.38 1020.36 1020.02 1019.99 1019.94 1020.04 1019.99 1019.78 1019.03 1018.48 1018.34 1018.11 1017.76 1017.63 1017.52 1016.92 1017.25 1017.50 1017.46 1017.45 1017.30 1017.06 1016.39 1015.71 1015.02 1014.16 1013.36 1012.99 1012.69 1012.76 1013.16 1013.80 1014.46 1015.31 1015.94 1016.13 1016.88 1017.28 1017.79 1017.96 1018.92 1018.79 1019.41
1020.21 1020.13 1019.71 1019.84 1020.01 1020.09 1020.18 1020.09 1019.87 1019.29 1018.97 1018.93 1018.67 1018.89 1018.81 1018.64 1018.68 1018.64 1018.68 1018.42 1018.41 1018.04 1017.51 1017.08 1016.64 1016.05 1015.43 1015.00 1014.25 1013.64 1013.42 1013.79 1013.88 1014.23 1014.96 1015.55 1016.22 1016.97 1017.34 1017.94 1018.56 1019.01 1019.00 1019.32
1020.01 1019.38 1019.09 1019.50 1019.74 1019.97 1019.99 1020.03 1019.85 1019.94 1019.82 1019.67 1019.52 1019.51 1019.43 1019.67 1019.72 1019.62 1019.52 1019.40 1019.13 1018.90 1018.61 1018.16 1017.52 1017.11 1016.45 1015.95 1015.44 1014.62 1013.85 1013.86 1014.23 1014.76 1015.10 1015.91 1016.53 1017.19 1017.50 1018.02 1018.68 1018.93 1019.53 1019.70
1019.94 1019.05 1019.07 1019.30 1019.40 1019.59 1019.71 1019.30 1019.79 1020.27 1020.74 1021.11 1020.78 1020.84 1020.41 1020.58 1020.82 1020.78 1020.71 1020.44 1020.16 1019.81 1019.48 1019.08 1018.51 1017.95 1017.47 1016.97 1016.27 1015.30 1014.27 1014.11 1014.32 1014.76 1015.26 1015.56 1015.85 1016.60 1016.86 1017.50 1018.35 1019.02 1019.71 1019.88
1019.41 1018.89 1018.83 1018.97 1018.65 1018.95 1019.22 1019.42 1020.28 1020.94 1021.70 1022.24 1022.11 1022.39 1020.61 1020.99 1021.67 1021.89 1021.80 1021.55 1021.28 1020.87 1020.34 1019.73 1019.33 1018.91 1018.43 1017.68 1017.09 1016.26 1015.11 1014.50 1014.65 1015.01 1015.34 1015.75 1016.40 1016.53 1016.88 1017.67 1018.43 1019.28 1019.74 1020.00
1019.43 1018.90 1018.65 1018.39 1018.40 1018.70 1019.32 1020.13 1021.35 1022.47 1023.21 1023.59 1022.40 1022.23 1021.09 1021.27 1021.48 1022.29 1022.53 1022.31 1022.00 1021.44 1020.91 1020.40 1020.13 1019.65 1019.18 1018.56 1017.77 1017.17 1016.55 1015.94 1015.55 1015.53 1015.62 1015.90 1016.40 1016.86 1017.23 1017.70 1018.37 1019.12 1019.39 1020.21
1019.81 1018.93 1018.29 1018.28 1018.73 1019.01 1019.92 1021.37 1023.53 1024.66 1025.37 1024.35 1022.96 1022.95 1021.52 1021.51 1021.67 1022.34 1022.76 1022.75 1022.45 1022.03 1021.56 1021.07 1020.53 1020.12 1019.91 1019.55 1019.10 1018.37 1017.81 1017.20 1016.85 1016.28 1016.17 1016.14 1016.38 1016.86 1017.20 1017.53 1017.91 1018.75 1019.55 1019.85
1021.30 1020.03 1018.95 1018.45 1018.66 1019.00 1020.09 1021.66 1023.86 1024.86 1025.83 1025.02 1023.65 1022.61 1021.31 1021.74 1022.11 1022.58 1022.89 1022.98 1022.79 1022.40 1022.04 1021.78 1021.49 1021.10 1020.71 1020.44 1020.20 1019.61 1018.84 1018.38 1018.01 1017.58 1017.04 1016.56 1016.48 1016.69 1016.94 1017.29 1017.67 1018.03 1018.29 1018.95
1022.35 1021.24 1019.88 1019.27 1019.16 1019.52 1020.63 1021.57 1022.42 1024.58 1026.79 1025.71 1023.59 1022.79 1022.40 1022.20 1022.52 1022.94 1023.27 1023.27 1023.08 1022.84 1022.45 1022.14 1021.86 1021.66 1021.27 1020.93 1020.84 1020.54 1019.99 1019.35 1018.84 1018.62 1017.95 1017.23 1016.91 1016.84 1016.75 1016.86 1017.28 1017.65 1017.96 1018.38
1023.02 1022.62 1021.18 1020.55 1019.99 1020.26 1020.73 1021.57 1023.05 1024.86 1026.42 1026.17 1023.80 1022.51 1021.29 1021.92 1022.57 1023.10 1023.40 1023.36 1023.22 1023.05 1022.83 1022.56 1022.26 1021.89 1021.71 1021.37 1021.38 1020.93 1020.53 1020.31 1019.85 1019.28 1018.78 1018.14 1017.44 1016.95 1016.84 1016.91 1017.05 1017.33 1017.69 1018.09
1023.68 1023.84 1022.79 1021.98 1021.80 1021.76 1021.93 1022.39 1023.60 1024.49 1025.24 1025.51 1024.59 1021.75 1019.84 1020.59 1022.20 1023.03 1023.29 1023.25 1023.08 1023.00 1022.92 1022.67 1022.42 1022.16 1021.90 1021.50 1021.56 1021.10 1020.94 1020.67 1020.15 1019.70 1019.28 1018.66 1017.99 1017.35 1017.05 1016.97 1016.93 1017.06 1017.42 1017.83
1024.37 1024.87 1024.85 1023.85 1023.40 1023.27 1023.10 1023.46 1024.23 1025.39 1025.98 1025.85 1025.05 1022.13 1020.93 1021.35 1022.24 1022.81 1023.08 1023.17 1023.10 1022.95 1022.93 1022.78 1022.51 1022.37 1022.10 1022.05 1021.44 1021.33 1021.27 1021.14 1020.77 1020.25 1019.72 1019.05 1018.45 1017.81 1017.36 1017.12 1016.91 1016.98 1017.27 1017.55
1024.88 1025.90 1026.58 1025.62 1024.98 1024.37 1024.16 1024.36 1024.97 1026.02 1026.82 1026.44 1025.89 1023.33 1022.85 1022.72 1022.92 1022.93 1023.01 1023.08 1022.96 1022.95 1022.84 1022.69 1022.49 1022.22 1022.20 1021.97 1021.73 1021.39 1021.48 1021.55 1021.04 1020.54 1019.96 1019.32 1018.75 1018.31 1017.84 1017.37 1017.14 1017.04 1017.16 1017.45
1025.61 1026.92 1027.54 1027.39 1026.65 1026.15 1025.64 1025.35 1025.78 1026.57 1027.79 1027.13 1025.50 1024.08 1023.76 1023.60 1023.49 1023.16 1023.12 1023.09 1022.99 1022.89 1022.85 1022.71 1022.49 1022.22 1021.83 1021.55 1021.66 1021.63 1021.43 1021.53 1021.31 1020.58 1020.16 1019.58 1019.10 1018.68 1018.22 1017.61 1017.24 1017.21 1017.15 1017.47
1027.10 1028.38 1028.58 1028.17 1027.67 1026.95 1026.16 1025.57 1026.34 1026.88 1027.08 1027.29 1024.92 1025.00 1022.90 1023.81 1023.56 1022.97 1023.04 1023.15 1023.20 1023.12 1022.96 1022.74 1022.48 1022.26 1021.97 1021.72 1021.71 1021.72 1021.49 1021.39 1021.53 1020.77 1020.33 1019.74 1019.07 1018.71 1018.25 1017.62 1017.15 1017.02 1017.04 1017.28
1028.11 1028.87 1029.36 1029.30 1028.40 1027.57 1026.31 1024.91 1026.01 1025.94 1025.99 1026.11 1025.33 1023.96 1022.97 1023.17 1023.19 1022.88 1023.28 1023.23 1023.26 1023.31 1023.12 1022.62 1022.28 1022.20 1022.00 1021.75 1021.70 1021.78 1021.56 1021.29 1021.38 1021.10 1020.46 1019.85 1019.07 1018.53 1018.23 1017.73 1017.19 1016.99 1016.85 1017.16
1028.83 1029.65 1030.53 1030.15 1029.21 1028.33 1026.32 1024.00 1024.25 1024.48 1024.72 1024.98 1024.62 1022.93 1022.35 1022.81 1022.90 1022.83 1022.66 1022.68 1022.91 1023.05 1022.65 1022.36 1022.23 1021.94 1021.82 1021.69 1021.57 1021.65 1021.42 1021.18 1021.42 1021.10 1020.36 1019.99 1019.18 1018.70 1018.19 1017.52 1017.08 1016.94 1016.86 1016.93
1028.70 1029.82 1030.50 1030.95 1030.26 1028.47 1024.27 1023.27 1023.16 1023.55 1023.45 1023.51 1023.19 1022.46 1021.84 1022.00 1021.45 1021.72 1021.85 1022.15 1022.14 1021.96 1021.85 1021.70 1021.64 1021.74 1021.61 1021.22 1021.40 1021.53 1021.62 1021.56 1021.17 1020.77 1020.10 1019.97 1019.25 1018.75 1018.22 1017.44 1016.86 1016.57 1016.59 1016.57
1027.96 1029.18 1030.13 1030.51 1029.88 1026.57 1023.77 1023.03 1023.01 1022.85 1022.51 1022.09 1022.07 1021.48 1020.68 1020.26 1020.28 1020.38 1020.47 1020.60 1020.79 1020.81 1020.64 1020.61 1020.65 1020.86 1020.75 1020.85 1020.83 1021.23 1021.08 1020.70 1020.84 1020.27 1019.83 1019.40 1018.91 1018.61 1018.29 1017.54 1016.68 1016.13 1016.18 1016.17
1028.23 1028.58 1029.32 1029.80 1028.91 1026.60 1021.93 1021.77 1021.41 1021.77 1021.11 1020.70 1020.58 1020.11 1020.06 1019.67 1020.17 1019.49 1018.90 1019.49 1019.75 1019.65 1019.80 1019.92 1019.79 1020.13 1020.26 1019.73 1020.16 1020.55 1020.58 1020.45 1020.14 1019.53 1019.33 1018.73 1018.51 1018.57 1018.21 1017.54 1016.45 1015.64 1015.53 1015.54
1029.06 1028.91 1028.81 1028.65 1027.78 1025.01 1021.76 1021.04 1020.94 1021.43 1020.32 1019.61 1019.79 1019.60 1019.34 1019.07 1018.68 1018.29 1018.05 1018.60 1018.51 1018.49 1018.74 1018.81 1019.29 1019.53 1019.02 1018.90 1019.37 1019.59 1019.36 1019.40 1018.77 1018.59 1018.44 1018.30 1018.16 1018.14 1017.69 1016.87 1016.00 1015.14 1014.95 1015.06
1027.97 1028.46 1028.66 1028.07 1027.09 1024.33 1021.30 1020.95 1021.20 1020.19 1019.52 1019.68 1019.18 1018.99 1018.75 1018.29 1017.81 1017.65 1017.57 1017.67 1017.70 1017.84 1017.86 1018.10 1018.48 1018.35 1017.77 1018.07 1018.70 1018.73 1018.58 1018.00 1018.07 1018.17 1018.13 1017.95 1017.79 1017.47 1016.69 1016.17 1015.41 1014.56 1014.32 1014.41
1026.50 1025.64 1025.82 1025.40 1022.88 1021.17 1020.56 1020.14 1019.81 1019.83 1019.54 1019.38 1019.14 1018.49 1018.26 1018.03 1017.67 1017.52 1017.52 1017.30 1017.07 1017.01 1017.05 1016.99 1017.46 1017.35 1017.00 1017.10 1017.59 1017.76 1017.06 1017.27 1017.68 1017.84 1017.55 1017.22 1016.94 1016.47 1015.99 1015.47 1014.73 1013.96 1013.66 1013.65
1024.63 1024.07 1023.93 1023.60 1020.74 1020.38 1020.04 1019.50 1019.40 1019.29 1019.31 1018.95 1018.94 1018.73 1018.49 1018.32 1017.80 1017.47 1017.36 1017.11 1016.86 1016.51 1016.43 1016.39 1016.65 1016.69 1016.40 1016.20 1016.51 1016.53 1016.36 1016.48 1017.04 1017.13 1016.92 1016.64 1016.41 1015.82 1015.26 1014.65 1013.86 1013.04 1012.69 1012.78
1023.10 1023.13 1022.79 1021.40 1020.27 1020.08 1019.49 1019.39 1019.71 1019.68 1019.69 1019.73 1019.80 1019.84 1019.62 1019.35 1018.72 1018.52 1018.12 1017.59 1016.95 1016.52 1016.21 1016.20 1016.04 1015.88 1015.57 1015.45 1015.65 1015.92 1016.08 1016.38 1016.69 1016.61 1016.36 1016.11 1015.81 1015.33 1014.55 1013.76 1012.83 1012.00 1011.56 1011.68
1022.03 1021.30 1021.60 1020.31 1020.04 1020.28 1019.83 1020.25 1020.61 1020.70 1020.85 1021.00 1021.03 1020.68 1020.51 1020.52 1019.99 1019.71 1019.15 1018.70 1018.25 1017.71 1017.38 1016.87 1016.26 1015.93 1015.37 1015.32 1015.38 1015.87 1015.87 1016.15 1016.36 1016.19 1015.84 1015.52 1015.17 1014.68 1014.10 1013.17 1011.92 1010.74 1010.61 1010.71
Wind_Speed
2 3 5 9 7 1 0 3 6 5 7 3 3 8 10 10 12 12 11 11 13 12 9 11 13 13 15 12 4 12 13 11 9 6 5 3 6 3 4 4 6 6 7 6
4 6 8 3 3 3 3 3 6 6 1 2 6 4 6 9 9 9 10 13 12 13 16 16 16 15 14 13 12 7 7 6 7 5 3 3 4 3 3 3 3 3 3 6
6 4 5 6 4 4 4 5 4 5 4 1 5 2 2 3 7 11 12 9 12 13 14 15 16 16 15 16 14 12 5 5 4 5 6 5 5 3 3 3 3 3 4 4
6 6 5 5 5 6 3 5 4 2 3 2 3 5 3 3 8 11 11 11 12 13 13 13 15 16 17 15 13 13 8 5 5 8 5 7 5 5 3 4 4 3 3 3
6 2 4 4 6 7 7 1 1 1 3 2 2 4 4 7 5 6 8 9 9 10 11 13 14 14 15 15 15 14 14 2 5 6 5 5 2 3 5 5 8 5 4 5
7 3 3 6 4 4 3 2 5 4 3 3 7 6 3 4 7 4 3 6 8 9 10 11 11 12 14 15 16 15 16 14 6 2 4 6 6 6 6 6 7 6 3 2
3 4 2 3 3 1 4 5 4 6 5 7 0 3 3 1 6 7 4 5 7 7 7 10 14 14 14 16 16 15 16 15 14 7 2 4 5 6 7 8 7 8 5 4
2 7 5 2 5 6 6 8 8 8 5 4 1 6 4 5 5 7 4 2 5 8 8 9 10 11 12 13 13 14 16 15 14 13 10 4 5 5 5 6 6 8 9 6
2 5 5 2 3 5 4 4 4 7 2 4 4 3 3 4 3 5 3 4 5 6 7 8 8 8 10 13 12 12 13 14 14 13 11 9 4 5 7 8 6 5 6 7
1 4 2 6 2 2 2 3 2 3 2 6 4 5 6 15 9 6 3 1 4 4 6 6 6 7 6 7 9 11 11 11 11 12 11 9 8 6 5 5 7 7 6 8
1 3 4 2 2 1 4 3 2 2 5 6 1 7 4 17 11 8 7 5 3 4 4 5 5 6 6 4 6 8 11 12 12 11 12 11 10 7 5 5 6 7 6 9
1 2 3 6 2 2 1 1 2 4 6 2 2 10 5 13 10 7 6 5 5 4 3 5 4 5 6 6 5 7 8 9 10 9 10 11 10 9 6 6 6 5 7 7
4 2 3 10 4 2 1 2 4 4 2 5 5 7 3 5 5 4 2 5 5 5 5 4 5 4 3 3 6 6 6 8 9 9 9 11 11 10 9 6 5 5 6 6
2 2 7 7 3 2 4 3 4 5 3 2 8 7 3 7 8 8 6 5 6 7 6 6 5 5 6 6 5 5 6 5 8 7 8 9 10 10 10 9 6 5 5 7
5 4 3 4 6 4 7 13 5 8 6 7 16 10 17 6 8 12 5 6 6 8 8 7 7 5 5 5 4 5 4 5 7 7 9 9 10 9 10 10 6 4 6 7
2 3 3 4 6 7 16 18 9 15 13 12 17 24 16 17 13 15 8 9 8 8 9 10 6 5 6 7 5 4 4 5 5 6 7 9 9 10 9 9 6 4 4 5
5 5 4 6 3 2 12 12 19 8 4 7 11 19 14 11 13 13 15 11 10 10 10 9 10 9 8 8 5 6 5 2 5 5 6 7 9 10 11 10 6 4 5 5
6 6 3 5 2 5 7 2 6 11 11 7 10 15 17 12 15 14 11 10 11 10 11 10 8 8 9 6 5 4 4 5 5 6 5 4 6 10 11 11 7 6 3 7
8 6 4 4 6 11 17 6 5 7 13 12 9 15 20 19 14 11 12 13 16 13 13 11 7 7 6 7 6 5 5 4 4 7 6 4 9 11 12 12 10 7 5 5
4 8 8 2 5 8 16 2 8 3 16 11 16 19 17 18 6 13 16 6 11 11 9 9 9 5 4 8 6 7 7 5 5 5 7 4 6 11 12 12 12 8 7 8
4 4 13 11 7 10 8 9 3 4 9 7 7 11 13 14 13 16 9 6 6 7 8 5 4 7 8 4 4 5 5 7 6 5 5 4 4 8 11 12 11 9 8 7
8 7 5 2 3 15 7 3 7 7 6 10 14 13 11 12 13 10 13 10 9 9 6 7 5 7 8 5 5 7 7 6 4 4 5 6 5 8 8 10 11 10 8 9
3 10 7 10 11 5 5 7 7 5 10 12 11 15 12 10 11 11 11 10 11 11 10 6 8 8 8 6 7 8 9 4 4 4 6 7 7 9 9 10 11 9 9 9
5 5 7 3 10 15 14 12 9 9 9 10 8 10 9 11 13 13 12 10 9 9 9 8 5 8 9 6 7 11 6 4 3 5 7 7 7 9 9 8 9 8 8 9
7 6 5 13 16 15 15 10 4 7 6 8 8 5 8 9 10 9 10 11 10 9 8 4 8 10 11 7 7 6 5 4 5 5 7 8 7 8 9 9 10 8 10 11
5 15 11 16 18 10 10 6 6 6 8 9 11 12 11 11 12 10 10 9 9 8 9 8 6 5 8 5 6 4 5 5 5 6 6 6 6 7 8 9 10 16 19 19
Wind_Direction
11 66 217 217 200 165 230 215 250 260 284 303 295 298 358 10 48 54 41 37 28 18 347 10 6 4 9 10 252 217 203 195 164 149 149 158 167 170 149 166 175 186 158 139
31 240 236 195 188 226 226 250 269 290 255 350 312 348 29 36 48 52 45 36 24 17 15 12 11 13 17 7 4 325 228 199 190 172 139 134 131 117 127 132 136 133 127 137
176 229 51 150 186 198 234 217 227 222 338 1 321 347 68 61 40 41 37 38 34 27 18 12 12 11 9 10 353 337 289 177 161 131 112 90 80 76 107 151 125 117 155 142
232 258 197 229 244 177 274 214 221 230 72 193 37 273 173 111 48 36 28 23 22 20 21 21 17 14 10 2 355 352 319 164 152 151 148 175 174 159 174 134 123 122 125 143
251 219 181 194 215 163 224 144 44 23 108 76 303 91 245 148 55 27 13 14 9 11 15 17 16 14 8 7 3 0 359 135 142 180 176 161 180 115 120 121 146 143 160 165
237 282 212 210 196 176 84 98 55 51 92 20 223 165 233 206 163 145 7 2 1 1 8 18 16 16 15 10 11 9 9 22 7 180 187 182 167 146 144 145 163 170 153 187
298 218 229 161 172 81 92 65 328 354 13 219 245 177 249 105 113 137 113 10 348 346 3 14 15 14 12 12 9 9 10 9 3 338 254 194 188 173 178 176 172 163 175 201
211 316 176 176 192 183 172 158 164 208 188 245 166 229 242 150 107 122 102 27 357 4 1 13 11 10 8 10 10 6 7 6 1 357 335 263 194 187 183 184 186 188 195 192
171 277 326 15 357 128 201 188 168 104 26 63 226 96 335 157 129 138 109 33 10 2 358 1 359 8 6 6 3 5 4 2 3 354 348 334 269 206 201 195 181 190 179 169
175 305 6 296 343 41 163 154 86 3 138 235 269 236 241 184 183 160 196 34 352 343 354 352 356 359 356 3 351 1 9 3 352 353 349 339 309 262 240 189 191 186 170 169
130 139 292 325 15 84 4 341 10 175 150 180 230 255 254 177 156 164 207 216 256 304 327 334 344 346 345 354 348 0 1 356 355 351 344 340 335 304 261 221 208 192 166 180
132 155 258 250 317 258 227 277 144 153 252 253 163 265 72 128 144 164 202 226 263 276 299 314 316 334 352 344 357 0 350 348 345 340 337 338 334 334 297 253 228 183 191 182
184 281 10 336 12 30 99 99 102 113 124 217 166 259 95 106 135 154 139 240 250 269 293 303 319 318 294 326 352 1 347 334 334 335 336 334 336 337 323 287 260 203 177 177
105 135 168 188 164 125 278 195 139 117 118 206 232 299 260 229 244 291 277 254 273 286 272 283 285 301 332 338 334 344 338 324 315 326 331 325 325 324 316 305 261 212 190 173
116 191 160 252 253 259 251 261 237 216 201 205 271 261 262 236 254 271 284 239 239 264 269 266 250 267 292 303 313 313 306 315 305 315 326 323 318 313 310 307 273 219 183 196
25 259 125 293 252 252 271 264 238 244 238 239 261 266 279 264 273 280 262 257 241 243 256 261 257 247 272 277 282 277 269 305 310 305 316 319 321 321 311 311 284 221 190 181
137 130 72 271 279 324 293 263 229 226 201 192 241 257 289 273 262 267 267 259 250 251 254 250 234 230 234 249 246 277 289 302 296 280 297 313 321 319 315 307 289 238 203 174
147 130 137 240 56 250 259 221 190 204 232 214 253 264 268 255 254 253 235 235 251 242 249 253 216 221 237 246 226 251 246 264 288 286 291 290 315 315 313 308 285 252 200 195
186 175 233 210 196 281 285 225 174 176 264 247 252 268 267 266 280 265 244 219 234 238 243 240 219 212 208 223 228 224 266 255 280 287 281 286 323 316 308 302 291 257 222 200
213 223 215 102 193 230 268 229 205 242 267 257 248 265 274 275 271 270 268 205 235 235 235 236 231 214 214 252 184 194 235 240 257 249 256 275 315 306 297 291 293 263 230 225
136 195 222 234 245 270 272 244 114 189 272 269 289 288 283 266 248 256 279 267 230 234 253 222 211 229 229 234 182 239 244 250 245 251 255 254 248 275 278 284 285 268 228 216
162 167 202 74 188 262 218 20 186 243 295 296 289 283 282 285 274 260 264 263 266 268 265 233 229 233 247 209 191 239 244 248 220 238 262 264 259 276 282 283 283 265 222 216
273 188 196 178 216 224 208 194 239 204 271 274 279 284 270 273 273 276 273 269 265 255 249 223 216 241 243 217 199 237 247 196 214 242 268 272 279 282 279 278 276 263 220 218
280 180 227 69 254 251 263 276 258 259 240 270 282 290 296 290 291 291 284 269 256 259 250 246 210 229 249 222 212 224 232 182 198 257 274 279 276 286 282 275 269 253 225 218
199 148 207 251 270 279 271 259 354 344 2 352 349 338 331 335 315 328 317 302 287 265 262 221 218 219 232 234 230 212 218 176 233 244 267 271 270 274 280 271 270 251 232 215
199 251 242 255 266 280 288 26 19 352 343 340 333 326 325 321 310 321 302 304 313 331 334 318 289 276 263 267 257 199 205 201 222 261 263 257 266 275 275 277 279 252 235 222